Wetbulb
71.39 72.46 74.23 72.29 72.19 71.89 68.02 68.19 71.97 69.98 71.46 70.73 69.55 68.72 71.00 71.05 70.89 71.04 72.09 75.92 76.19 76.34 75.87 75.26 75.32 74.77 74.36 73.30 73.21 73.85 73.80 73.79 73.69 73.70 73.73 73.39 73.13 73.56 72.65 71.61 71.69 72.30 72.43
72.14 73.41 73.03 71.44 71.07 71.16 69.58 70.54 70.48 67.78 68.91 69.96 69.78 69.38 67.63 70.46 70.20 70.45 72.15 73.73 76.06 76.14 75.92 76.00 75.26 75.03 74.68 74.81 74.16 72.62 72.46 73.83 73.87 73.41 73.48 74.12 74.23 73.69 72.92 71.90 71.61 72.31 72.71
73.24 72.65 71.76 73.01 73.17 72.28 71.12 72.35 70.67 69.28 68.58 69.81 69.39 68.91 66.72 69.00 70.19 69.62 71.52 72.43 73.79 75.47 76.48 76.25 76.53 75.82 75.38 74.97 74.84 74.59 74.11 73.55 72.96 73.49 73.87 73.34 73.97 73.89 73.56 73.33 73.33 72.82 73.11
74.56 72.73 73.29 72.51 71.54 74.11 74.23 71.99 71.33 71.02 69.43 70.02 66.63 68.55 67.85 66.53 69.33 69.87 70.20 70.36 71.40 71.66 75.33 76.24 76.06 76.22 75.18 74.79 74.98 74.77 74.63 75.04 74.60 74.67 74.57 74.32 74.39 74.24 74.32 74.20 74.08 74.31 74.13
74.62 74.38 72.72 73.20 73.28 72.31 71.80 71.95 71.23 72.19 68.77 67.07 67.83 66.62 66.18 67.13 66.87 70.22 69.22 69.83 69.53 71.19 72.18 75.83 75.42 75.57 74.94 74.72 74.69 74.72 74.71 75.17 74.66 74.58 74.68 74.56 74.41 74.51 74.76 74.31 74.04 74.44 74.33
75.05 74.61 73.51 72.76 72.37 71.34 71.52 72.32 69.93 67.90 65.47 65.20 68.05 66.47 65.13 67.30 67.20 67.22 70.63 70.57 69.95 70.49 71.36 71.95 72.43 73.34 74.30 74.99 74.64 74.08 74.24 74.21 74.47 74.80 75.13 74.93 74.63 74.78 74.68 74.38 73.81 73.99 73.94
75.12 74.91 74.31 72.35 73.61 71.26 72.18 71.29 69.64 69.10 64.88 66.62 63.78 63.83 63.73 64.33 66.73 67.02 69.01 69.22 69.70 69.41 69.74 70.68 70.50 70.96 71.87 74.71 74.19 74.49 73.53 73.31 74.08 73.91 73.44 73.01 73.78 73.56 73.49 73.46 73.01 72.52 73.04
75.66 75.26 73.69 72.68 73.47 72.77 72.09 71.35 71.04 69.14 66.59 64.99 65.78 64.71 60.67 62.38 64.54 65.23 64.01 65.76 67.25 68.38 70.07 70.45 69.69 70.17 70.80 70.79 71.99 74.75 74.88 74.15 73.90 73.52 73.19 73.19 73.51 73.53 73.11 72.22 71.95 71.85 71.85
75.88 74.63 74.41 73.73 73.70 73.42 72.42 72.00 71.92 70.09 66.29 65.65 67.52 65.74 59.43 58.47 61.73 65.48 64.32 63.23 65.25 64.83 68.27 70.16 70.45 70.03 69.86 69.37 71.18 71.51 73.14 73.09 73.04 72.24 71.45 71.07 71.36 71.19 70.57 70.11 69.69 69.32 69.39
74.99 75.43 74.59 74.02 73.84 72.62 71.56 72.29 73.15 70.70 69.28 63.30 64.44 67.28 67.16 66.71 60.35 59.62 63.82 63.87 65.42 64.86 65.11 67.92 69.05 70.10 66.34 65.85 68.55 69.11 70.47 69.82 70.17 69.12 67.44 67.55 67.98 68.24 67.66 67.61 68.51 68.47 68.52
74.90 76.26 75.43 74.81 73.95 74.21 72.55 71.43 72.26 71.81 71.89 68.23 63.47 63.78 64.75 65.32 65.45 62.85 59.30 63.16 64.54 64.57 65.52 65.57 65.83 67.04 66.06 65.97 64.74 66.60 69.70 68.69 68.52 69.19 69.39 68.50 67.74 67.07 66.63 66.13 66.34 67.02 67.62
73.90 74.61 75.45 75.11 74.89 73.85 73.10 72.68 73.28 72.95 71.01 71.67 68.70 66.84 63.31 62.47 62.97 62.37 62.37 62.52 61.67 63.90 64.76 64.10 65.86 65.48 65.82 63.69 65.77 68.55 69.43 68.32 67.83 67.71 67.93 68.71 69.27 68.09 66.82 66.69 66.55 66.71 67.15
73.23 73.81 75.14 74.58 75.11 73.90 74.53 73.78 73.23 74.08 72.37 71.35 70.72 67.20 67.35 65.05 66.75 64.42 63.85 62.16 62.10 63.68 64.21 64.59 64.89 65.83 67.66 64.02 63.84 68.73 69.48 67.94 67.20 66.74 66.82 67.40 67.90 68.54 69.09 68.70 68.28 68.34 68.69
73.65 74.34 75.09 75.48 74.63 74.85 74.85 73.82 73.85 73.42 73.85 71.82 72.19 69.30 66.84 67.64 67.05 65.09 63.37 63.18 59.71 60.77 62.87 61.39 65.52 65.11 65.84 65.98 66.07 69.54 66.27 67.14 66.72 65.70 65.65 66.02 66.51 66.95 67.70 68.45 68.96 69.25 69.37
72.85 74.59 75.09 75.86 75.18 75.01 74.53 75.04 74.41 73.31 74.09 72.82 71.59 71.74 68.95 67.58 67.45 66.92 65.58 64.86 62.13 58.91 60.76 63.16 63.40 65.77 65.98 66.83 66.84 65.99 64.02 67.06 66.61 65.97 65.26 65.35 65.95 66.70 66.98 67.26 67.49 67.58 67.72
72.68 73.42 74.73 74.64 75.30 75.61 75.23 74.50 74.36 74.46 73.52 73.61 72.82 71.73 70.72 68.74 66.99 66.90 66.32 64.66 64.25 61.61 58.67 64.06 63.88 65.05 67.02 67.03 68.09 65.55 65.43 67.06 67.23 66.61 66.00 65.55 65.77 66.41 66.76 66.88 67.05 66.78 66.85
73.50 73.19 74.96 74.48 74.88 74.78 75.66 74.58 73.65 73.74 73.92 73.07 72.80 72.24 70.91 69.58 66.44 66.33 66.08 66.09 63.83 63.34 59.75 61.34 64.41 64.76 64.93 65.90 66.31 66.42 67.96 66.85 65.52 66.05 66.09 65.77 65.46 65.62 66.22 66.37 66.19 66.12 66.16
73.80 75.53 75.88 75.22 75.32 75.18 75.11 75.30 74.55 74.71 73.37 73.30 73.29 71.96 71.65 71.63 67.77 67.63 68.35 64.61 64.47 64.71 61.77 59.52 65.13 66.22 64.50 64.26 64.67 64.29 66.82 67.91 65.96 66.37 65.35 65.08 64.59 64.08 64.48 64.74 64.57 64.85 65.32
75.32 74.11 75.68 75.70 75.61 75.54 75.36 75.19 75.18 74.96 73.66 73.83 73.97 73.38 72.57 71.09 68.95 68.71 67.78 67.18 65.19 65.23 65.20 62.41 63.97 65.28 65.44 66.42 66.19 66.27 66.16 65.81 67.08 68.47 65.24 64.23 64.21 63.33 63.09 62.34 61.89 61.58 61.64
74.16 76.15 74.19 75.57 75.80 75.81 75.44 75.62 75.24 74.93 74.86 73.67 74.29 74.61 73.79 72.08 70.82 69.69 68.18 66.97 66.78 65.60 65.42 63.39 62.47 63.04 65.44 66.46 65.74 65.59 65.13 67.44 66.90 68.64 66.85 65.24 64.71 64.46 63.64 61.87 61.36 61.12 59.29
75.13 75.17 75.82 74.78 76.04 75.70 75.94 75.28 75.35 75.19 74.78 74.48 73.68 74.81 74.73 73.77 71.15 70.52 70.30 67.83 66.15 66.21 65.00 64.57 62.97 62.33 62.02 64.84 65.87 65.40 64.48 65.47 66.35 66.46 63.36 62.66 62.54 62.54 63.39 63.48 63.73 63.88 60.64
74.25 75.46 75.01 75.15 75.40 76.39 71.31 69.27 74.01 75.30 75.10 74.65 74.31 73.90 75.20 72.61 71.16 68.06 67.84 68.03 68.35 65.66 66.41 65.15 64.41 63.90 64.23 62.95 65.25 66.10 65.67 63.54 62.33 65.94 65.00 63.97 63.08 62.00 63.00 62.48 63.52 62.93 60.92
75.86 74.72 74.69 75.45 74.89 75.87 68.09 67.04 69.13 75.66 75.00 75.04 74.83 74.77 74.34 75.54 72.18 73.21 67.57 66.82 66.81 65.96 65.89 67.33 65.12 64.46 64.31 65.42 65.89 65.16 65.40 64.20 61.87 63.71 64.01 62.50 64.65 63.18 64.55 64.81 62.57 61.52 60.44
75.70 75.94 75.68 75.33 76.03 75.92 67.02 65.25 66.86 74.81 75.29 75.14 75.34 75.26 74.96 74.57 74.39 73.59 72.84 70.06 69.98 68.77 68.06 67.22 67.21 66.53 66.37 66.55 67.43 67.21 66.22 65.08 65.03 65.32 63.95 60.00 63.58 62.65 61.91 60.01 60.94 60.88 59.64
75.94 76.13 76.48 76.18 75.94 76.23 64.53 63.80 64.94 73.06 74.67 74.90 75.32 75.39 75.55 75.20 71.01 65.58 73.34 71.85 70.14 70.23 65.90 63.37 64.35 63.93 64.22 65.16 67.89 68.18 65.47 63.86 61.54 63.14 64.63 62.00 62.75 62.43 60.05 58.10 59.00 59.76 58.00
76.26 76.81 76.27 76.88 73.29 76.55 66.36 61.59 64.37 74.38 73.97 74.43 75.04 75.12 67.69 72.57 66.34 62.36 72.27 72.67 70.69 70.12 69.74 68.83 65.96 63.66 64.17 65.06 64.70 68.69 66.98 64.25 62.09 61.86 64.57 62.17 62.33 61.04 55.91 58.04 57.27 56.88 55.57
MSLP
1018.70 1018.85 1019.15 1019.32 1019.13 1019.25 1019.28 1019.21 1019.26 1019.10 1018.87 1018.65 1018.59 1018.68 1019.03 1019.53 1020.03 1020.42 1020.86 1020.98 1021.21 1021.30 1021.37 1021.63 1021.91 1022.08 1022.28 1022.50 1022.63 1022.71 1022.81 1022.94 1023.09 1023.21 1023.28 1023.34 1023.43 1023.48 1023.58 1023.65 1023.74 1023.82 1023.85
1018.63 1018.68 1019.14 1019.41 1019.28 1019.38 1019.30 1019.19 1019.39 1019.19 1018.88 1019.09 1018.91 1018.64 1019.32 1019.63 1019.97 1020.39 1020.91 1021.12 1021.25 1021.33 1021.38 1021.48 1021.74 1021.98 1022.18 1022.42 1022.60 1022.63 1022.68 1022.77 1022.94 1023.11 1023.22 1023.34 1023.47 1023.57 1023.64 1023.73 1023.75 1023.74 1023.73
1018.09 1018.35 1018.91 1018.97 1018.99 1019.11 1019.21 1019.07 1019.10 1019.38 1019.31 1019.21 1019.24 1018.83 1019.20 1019.82 1020.19 1020.57 1020.66 1020.95 1021.15 1021.14 1021.32 1021.45 1021.68 1021.93 1022.04 1022.07 1022.37 1022.56 1022.77 1022.98 1023.08 1023.15 1023.30 1023.44 1023.47 1023.57 1023.62 1023.69 1023.72 1023.69 1023.64
1017.82 1018.58 1018.57 1018.57 1018.69 1018.50 1018.67 1019.22 1019.16 1019.59 1019.63 1019.31 1019.32 1019.15 1019.15 1019.47 1019.85 1020.17 1020.49 1020.79 1020.87 1020.95 1021.21 1021.47 1021.64 1021.84 1021.92 1022.04 1022.14 1022.55 1022.72 1022.88 1023.09 1023.21 1023.21 1023.21 1023.19 1023.24 1023.39 1023.53 1023.55 1023.52 1023.50
1017.71 1018.24 1018.82 1018.69 1018.65 1018.70 1018.79 1019.14 1019.28 1019.20 1019.36 1019.42 1019.46 1019.32 1019.58 1019.51 1019.59 1020.13 1020.51 1020.65 1020.87 1021.12 1021.34 1021.50 1021.60 1021.74 1021.94 1022.10 1022.27 1022.48 1022.55 1022.77 1022.94 1023.06 1023.04 1023.02 1023.05 1023.12 1023.21 1023.32 1023.42 1023.45 1023.45
1017.56 1018.01 1018.61 1018.79 1018.54 1018.74 1018.94 1019.09 1019.11 1019.17 1019.26 1019.22 1019.44 1019.65 1019.70 1019.43 1019.49 1020.01 1020.22 1020.68 1020.81 1020.94 1021.39 1021.56 1021.83 1021.94 1021.95 1022.16 1022.43 1022.42 1022.49 1022.58 1022.62 1022.59 1022.68 1022.72 1022.88 1023.01 1023.09 1023.16 1023.17 1023.18 1023.19
1017.35 1017.75 1018.16 1018.58 1018.51 1018.95 1019.02 1019.07 1019.18 1019.39 1019.41 1019.52 1020.12 1020.17 1019.98 1019.59 1019.86 1019.97 1020.15 1020.62 1020.76 1021.09 1021.54 1021.77 1021.91 1022.07 1022.26 1022.21 1022.36 1022.38 1022.42 1022.26 1022.23 1022.37 1022.30 1022.61 1022.72 1022.66 1022.79 1022.91 1023.04 1023.11 1022.99
1017.11 1017.54 1017.90 1018.40 1018.40 1018.91 1019.06 1019.19 1019.36 1019.62 1019.63 1019.67 1020.31 1020.57 1020.77 1020.42 1020.37 1020.34 1020.54 1020.87 1020.97 1021.17 1021.41 1021.70 1021.89 1022.09 1022.12 1022.30 1022.50 1022.50 1022.49 1022.51 1022.63 1022.67 1022.73 1022.76 1022.77 1022.97 1022.87 1023.09 1023.19 1023.34 1023.44
1016.71 1017.14 1017.61 1017.96 1018.20 1018.53 1018.97 1019.11 1019.23 1019.55 1019.83 1019.96 1019.80 1020.38 1021.15 1021.14 1021.02 1020.85 1020.70 1020.81 1021.18 1021.31 1021.23 1021.53 1021.86 1022.10 1022.21 1022.46 1022.56 1022.80 1022.70 1022.51 1022.72 1022.80 1022.98 1023.19 1023.14 1023.09 1023.19 1023.28 1023.29 1023.39 1023.59
1016.36 1016.77 1017.21 1017.63 1017.95 1018.21 1018.60 1018.76 1019.00 1019.27 1019.62 1020.03 1020.09 1019.83 1020.01 1020.42 1021.23 1021.76 1021.38 1021.14 1020.96 1021.11 1021.41 1021.42 1021.56 1021.98 1022.22 1022.42 1022.55 1022.71 1022.53 1022.59 1022.81 1023.09 1023.11 1023.13 1023.22 1023.28 1023.38 1023.50 1023.34 1023.20 1023.19
1015.90 1016.28 1016.81 1017.25 1017.74 1017.91 1018.27 1018.43 1018.83 1019.12 1019.34 1019.61 1019.84 1019.99 1020.09 1020.28 1020.51 1021.32 1021.77 1021.62 1021.37 1021.08 1021.04 1021.05 1021.25 1021.73 1021.90 1022.17 1022.44 1022.65 1022.73 1022.75 1022.99 1022.99 1023.06 1023.14 1023.25 1023.16 1023.27 1023.37 1023.53 1023.43 1023.32
1015.77 1015.90 1016.29 1016.66 1017.00 1017.38 1017.86 1018.12 1018.48 1018.86 1019.10 1019.30 1019.45 1019.69 1019.88 1020.25 1020.53 1020.85 1021.32 1021.50 1021.50 1021.21 1020.84 1020.91 1020.87 1021.31 1021.55 1021.91 1022.04 1022.33 1022.55 1022.83 1022.94 1023.11 1023.15 1023.18 1023.25 1023.36 1023.42 1023.20 1023.09 1023.21 1023.27
1015.43 1015.72 1016.06 1016.42 1016.78 1016.93 1017.23 1017.55 1018.12 1018.46 1018.72 1018.98 1019.17 1019.43 1019.53 1019.68 1019.77 1020.16 1020.65 1020.99 1021.23 1021.10 1021.08 1020.80 1020.73 1020.79 1021.19 1021.63 1021.83 1022.17 1022.39 1022.58 1022.71 1022.78 1023.11 1023.23 1023.18 1023.23 1023.20 1023.24 1023.26 1023.22 1023.27
1014.67 1015.02 1015.42 1015.66 1016.08 1016.40 1016.80 1017.12 1017.65 1018.01 1018.28 1018.55 1018.90 1019.09 1019.29 1019.43 1019.62 1019.62 1019.97 1020.57 1021.30 1021.20 1021.10 1020.68 1020.58 1020.53 1020.86 1021.19 1021.43 1021.79 1022.00 1022.20 1022.24 1022.45 1022.68 1022.88 1023.08 1023.11 1023.16 1023.06 1023.15 1023.16 1022.84
1013.88 1014.33 1014.75 1015.19 1015.51 1015.84 1016.29 1016.85 1017.29 1017.61 1018.00 1018.30 1018.44 1018.69 1019.03 1019.14 1019.29 1019.35 1019.26 1019.81 1020.60 1021.37 1021.39 1020.68 1020.50 1020.08 1020.38 1020.56 1020.88 1021.29 1021.55 1021.76 1022.04 1022.35 1022.34 1022.44 1022.54 1022.72 1022.88 1022.90 1022.83 1022.84 1022.82
1013.27 1013.63 1014.04 1014.42 1014.90 1015.31 1015.86 1016.36 1016.88 1017.29 1017.64 1017.87 1018.11 1018.56 1018.80 1018.93 1019.13 1019.29 1019.16 1019.23 1019.76 1020.45 1021.09 1020.41 1020.11 1019.80 1019.88 1020.09 1020.20 1020.48 1020.88 1021.15 1021.46 1021.65 1021.76 1021.90 1021.97 1022.22 1022.46 1022.45 1022.59 1022.60 1022.52
1012.54 1012.97 1013.32 1013.86 1014.30 1014.90 1015.48 1015.91 1016.22 1016.64 1017.14 1017.54 1017.78 1018.14 1018.41 1018.67 1018.95 1019.08 1019.08 1018.83 1019.20 1019.55 1020.21 1019.91 1019.56 1019.38 1019.77 1019.91 1020.11 1020.37 1020.48 1020.67 1020.75 1020.87 1020.96 1021.21 1021.41 1021.71 1021.94 1022.08 1021.99 1022.19 1022.43
1011.94 1012.15 1012.79 1013.35 1013.96 1014.31 1014.70 1015.18 1015.61 1015.93 1016.42 1016.88 1017.15 1017.45 1017.74 1018.15 1018.43 1018.51 1018.56 1018.62 1018.69 1018.81 1019.19 1019.63 1019.55 1019.43 1019.40 1019.47 1019.41 1020.06 1020.04 1019.98 1020.28 1020.19 1020.45 1020.52 1020.82 1021.04 1021.47 1021.62 1021.64 1021.75 1022.14
1011.25 1011.69 1012.38 1012.63 1012.93 1013.50 1014.02 1014.41 1014.77 1015.13 1015.58 1015.86 1016.18 1016.57 1016.93 1017.32 1017.56 1017.61 1017.88 1018.27 1018.45 1018.38 1018.63 1018.89 1019.18 1019.00 1018.96 1019.17 1019.60 1019.63 1019.70 1019.71 1019.57 1019.52 1019.68 1019.77 1019.97 1020.46 1020.77 1020.87 1021.10 1021.21 1021.45
1010.60 1011.07 1011.37 1011.86 1012.26 1012.53 1013.02 1013.48 1013.89 1014.32 1014.62 1014.95 1015.31 1015.51 1015.85 1016.09 1016.21 1016.54 1016.96 1017.35 1017.64 1017.92 1018.04 1018.30 1018.53 1018.75 1018.80 1018.74 1018.99 1019.32 1019.68 1019.38 1019.12 1018.86 1018.95 1019.01 1019.24 1019.47 1019.66 1019.80 1020.12 1020.54 1020.94
1009.89 1010.34 1010.75 1011.07 1011.45 1011.81 1012.06 1012.48 1012.86 1013.27 1013.64 1013.99 1014.15 1014.40 1014.56 1014.71 1014.95 1015.23 1015.75 1016.15 1016.66 1017.00 1017.26 1017.53 1017.88 1017.97 1018.13 1018.34 1018.40 1018.53 1018.73 1018.61 1018.68 1018.83 1019.02 1019.00 1019.23 1019.45 1019.57 1019.57 1019.78 1020.09 1020.40
1008.97 1009.43 1009.74 1010.04 1010.46 1010.66 1010.89 1011.26 1011.85 1012.38 1012.70 1013.02 1013.24 1013.30 1013.55 1013.86 1014.02 1014.28 1014.64 1015.06 1015.47 1015.87 1016.25 1016.30 1016.55 1016.77 1016.85 1016.99 1017.14 1017.31 1017.74 1018.41 1018.83 1018.02 1018.88 1019.01 1018.93 1019.23 1019.09 1019.18 1019.21 1019.34 1019.69
1008.04 1008.36 1008.69 1009.08 1009.25 1009.51 1009.88 1010.38 1011.05 1011.50 1011.68 1011.84 1012.01 1012.23 1012.54 1012.67 1013.10 1013.51 1013.87 1014.17 1014.48 1014.66 1014.73 1015.13 1015.35 1015.16 1015.37 1015.40 1015.93 1016.57 1016.88 1017.23 1017.54 1017.69 1018.19 1018.40 1018.53 1018.97 1018.63 1018.45 1018.62 1018.82 1019.24
1006.71 1007.13 1007.52 1007.93 1008.31 1008.29 1008.91 1009.50 1010.27 1010.72 1010.77 1010.86 1011.01 1011.18 1011.32 1011.56 1011.80 1012.35 1012.75 1013.31 1013.72 1013.72 1013.73 1014.23 1014.29 1014.42 1014.56 1014.81 1015.06 1015.28 1015.74 1016.39 1016.82 1017.03 1017.45 1018.18 1018.00 1018.16 1017.98 1018.46 1018.30 1018.50 1018.88
1005.80 1006.06 1006.52 1007.00 1007.16 1007.46 1008.13 1008.87 1009.74 1010.02 1009.74 1009.50 1009.99 1010.30 1010.42 1010.45 1010.71 1011.19 1011.73 1012.13 1012.45 1012.14 1012.46 1012.85 1012.93 1013.24 1013.60 1013.77 1014.03 1014.65 1015.25 1015.92 1016.77 1016.45 1016.12 1016.67 1017.37 1017.54 1017.54 1017.50 1018.11 1018.22 1018.52
1004.67 1005.25 1005.49 1005.73 1006.12 1006.56 1007.26 1007.98 1008.70 1008.97 1008.85 1009.00 1009.18 1009.01 1009.07 1009.24 1009.77 1010.17 1010.53 1010.76 1010.80 1010.63 1011.51 1011.90 1012.51 1012.55 1012.20 1012.26 1012.61 1012.95 1014.18 1014.87 1015.09 1015.64 1015.56 1015.25 1016.07 1017.22 1017.57 1017.35 1017.65 1018.06 1018.25
Wind_Speed
2 4 3 2 3 3 1 1 1 2 2 4 5 7 11 9 7 4 3 10 8 8 12 11 10 10 9 8 8 7 7 6 5 4 5 4 4 3 3 2 2 1 1
4 4 5 4 4 3 3 3 3 2 4 5 6 5 7 8 7 7 4 5 9 8 9 11 11 10 9 8 8 8 7 7 6 4 3 3 3 3 2 1 1 1 1
4 4 5 5 5 4 5 2 1 2 2 3 4 4 5 8 6 7 6 4 5 7 9 8 10 10 9 10 9 8 7 6 6 5 4 2 4 3 3 3 3 3 3
5 5 3 4 3 0 2 3 3 2 3 3 1 1 4 4 10 8 6 5 4 5 6 9 9 10 9 9 7 7 6 5 5 4 3 6 6 6 5 5 6 4 5
5 4 4 3 4 3 1 2 2 2 1 0 3 3 2 3 8 7 7 6 5 4 3 7 9 9 9 7 7 6 7 7 6 6 6 6 6 5 5 4 4 4 4
7 5 4 4 4 2 2 2 2 2 2 2 4 5 4 2 2 6 8 6 5 7 5 5 3 4 6 5 4 5 5 6 7 8 8 7 6 6 6 5 4 4 5
7 6 3 4 3 4 3 2 2 3 2 3 3 3 3 2 1 4 8 6 6 5 6 4 3 2 2 6 4 3 3 4 5 6 5 3 3 5 4 2 0 2 3
7 6 6 4 4 3 3 3 2 1 0 2 3 2 2 5 4 3 5 6 6 4 6 6 5 5 4 3 5 6 5 5 6 6 6 5 5 6 6 5 5 6 8
8 7 7 5 4 5 4 4 3 4 2 2 4 4 2 3 1 2 3 5 7 4 5 6 5 6 5 4 5 6 8 6 7 6 5 6 5 6 6 6 6 7 7
8 8 7 6 6 4 5 5 4 3 3 3 1 2 2 5 3 2 3 0 4 5 6 5 6 6 6 5 9 9 10 8 7 7 6 6 6 5 6 6 6 6 6
8 9 9 7 6 5 6 6 4 4 2 3 3 2 1 1 2 3 2 2 2 2 5 5 6 6 7 6 5 7 10 10 9 8 7 6 6 5 5 4 4 3 2
7 7 9 8 7 6 6 6 5 5 5 3 2 3 4 4 3 3 2 3 5 4 4 5 6 5 7 6 10 13 13 11 10 9 8 6 5 4 3 4 4 3 3
6 7 7 8 6 6 6 6 6 6 6 4 4 3 2 3 3 3 3 3 3 3 3 2 5 5 6 6 6 12 14 12 11 11 9 8 6 5 5 5 5 5 5
8 10 9 10 9 9 7 7 5 5 6 5 5 4 3 3 2 3 4 4 1 1 1 4 4 5 5 7 9 15 8 13 12 11 10 9 8 8 8 8 8 8 8
8 12 12 11 11 11 9 7 7 7 6 6 7 6 3 3 2 3 3 4 5 2 4 4 3 5 5 7 9 9 8 12 12 11 11 11 11 9 9 9 10 9 10
7 9 13 14 13 13 12 10 5 6 7 6 5 6 5 3 4 2 3 3 3 5 2 4 5 4 6 6 12 11 10 13 15 15 14 12 12 11 10 11 10 10 9
7 7 12 13 13 13 10 10 8 7 8 7 6 8 8 6 4 4 4 3 4 4 5 4 4 5 3 6 6 5 6 8 7 16 15 14 13 11 11 11 12 10 9
9 7 10 12 11 13 13 12 12 11 10 9 9 9 10 7 7 6 4 6 5 5 5 6 4 3 4 6 8 7 6 6 6 11 13 15 13 12 11 12 11 9 9
11 11 8 13 14 14 13 14 13 12 10 10 12 11 12 11 10 8 6 5 4 4 4 4 5 3 4 3 3 3 5 5 5 10 14 15 16 14 12 13 10 10 10
14 10 12 11 14 15 15 15 15 14 14 12 9 13 13 14 16 14 11 9 6 6 5 4 4 4 4 4 4 6 4 4 6 5 7 9 13 14 14 14 13 10 10
14 14 12 12 12 13 12 16 16 16 16 15 14 12 15 19 20 18 11 11 11 7 7 6 4 4 4 3 9 5 7 6 6 4 3 3 3 4 6 11 8 11 12
17 15 16 17 15 12 17 19 18 15 16 16 15 15 14 18 20 20 20 17 16 14 11 10 9 8 12 6 5 10 9 5 4 3 5 4 4 4 5 4 10 11 13
16 18 18 16 19 18 17 19 20 15 16 17 18 15 15 13 17 17 18 19 18 19 20 13 12 14 12 13 8 8 11 9 5 3 4 4 4 3 4 4 11 13 13
18 17 17 18 16 17 15 18 18 19 16 17 17 18 17 17 16 17 16 16 18 17 17 13 13 12 10 9 11 10 11 7 3 3 4 4 2 4 3 3 9 13 13
16 16 15 16 19 17 14 16 13 14 18 21 16 16 17 19 18 18 17 17 18 19 14 17 18 14 13 11 8 7 6 6 2 5 5 6 4 4 4 4 4 12 14
16 13 15 16 17 16 14 16 16 12 16 13 16 18 19 20 16 18 19 17 19 19 17 15 12 10 15 16 19 12 8 9 4 2 5 7 5 4 2 3 5 5 5
Wind_Direction
258 176 178 170 166 206 221 198 316 292 338 315 355 68 134 128 131 133 153 155 155 148 152 153 154 153 154 150 149 146 140 140 128 133 136 143 140 130 123 113 112 94 2
223 133 143 179 170 210 218 178 159 116 322 0 345 48 130 138 144 141 145 147 153 158 159 164 161 165 163 164 168 170 173 175 169 165 174 184 186 171 203 212 257 285 320
198 141 148 169 194 190 228 173 220 87 333 273 269 130 92 147 138 142 149 157 155 159 161 169 167 169 178 178 184 183 184 182 192 208 190 233 261 217 236 254 257 258 257
160 122 153 168 182 207 168 141 231 158 238 260 299 174 126 129 152 159 147 156 171 166 166 160 172 173 187 186 192 190 199 206 219 241 236 229 225 229 237 254 274 263 267
172 142 147 201 188 145 129 160 209 228 95 201 193 132 94 207 144 145 161 164 159 141 141 167 170 179 179 187 189 195 210 216 219 229 233 239 237 247 248 255 271 279 293
172 167 144 165 147 155 90 194 112 39 140 88 118 105 142 156 138 138 168 137 164 160 138 155 163 184 183 179 175 200 214 212 218 222 227 230 236 238 233 243 257 272 276
168 161 143 165 154 153 191 168 86 60 2 75 67 8 356 6 124 139 149 142 181 137 134 158 172 149 160 143 148 176 153 177 185 198 206 212 234 227 217 229 355 16 338
166 155 163 181 183 165 158 164 130 38 342 113 112 78 24 336 13 90 125 151 158 141 162 175 174 154 152 138 144 131 127 118 108 114 116 104 78 80 99 101 85 63 58
167 165 182 191 193 158 175 181 169 158 167 17 129 139 86 213 85 350 64 97 133 160 169 165 154 163 159 144 156 142 134 137 131 128 118 108 109 114 108 96 89 82 77
172 171 182 190 183 174 181 185 187 179 138 159 24 126 143 144 142 21 350 212 150 159 146 186 167 170 156 160 173 168 156 147 137 135 145 145 144 135 119 110 112 109 102
178 179 182 186 187 171 191 192 193 189 164 144 162 172 108 145 119 133 184 262 325 202 179 177 170 164 176 170 170 174 167 159 153 162 166 172 159 161 145 140 130 137 150
192 188 181 179 185 172 172 194 199 188 183 152 167 180 158 163 201 152 126 197 187 252 203 181 177 168 170 171 174 179 172 171 168 177 186 195 191 193 195 200 203 217 239
186 197 173 185 180 179 182 180 189 195 184 175 182 187 172 203 165 159 136 204 175 225 230 227 189 186 172 170 179 177 176 185 186 187 196 206 210 222 246 270 279 282 288
184 189 189 181 180 182 185 185 186 191 182 184 196 217 189 216 210 170 158 131 44 331 299 210 207 196 159 179 182 176 186 195 200 196 200 206 222 230 242 255 269 275 275
188 188 192 180 186 185 190 183 195 197 181 186 199 206 206 240 258 241 161 146 146 138 246 268 171 215 166 168 178 182 186 202 207 209 211 212 217 223 233 246 251 262 269
195 182 192 191 185 185 191 193 184 194 193 192 192 188 215 233 248 266 212 180 153 151 190 212 233 175 177 178 185 182 192 197 206 206 214 216 218 219 224 235 242 247 251
204 180 185 192 189 189 186 193 195 189 192 190 188 183 209 208 224 240 233 182 192 155 167 282 215 204 157 172 174 193 197 195 204 214 213 216 216 212 215 223 230 231 234
207 191 183 182 185 192 194 192 200 204 200 194 193 189 199 202 221 217 212 225 190 193 157 200 217 185 172 198 180 182 195 194 199 216 216 219 214 213 204 220 224 213 216
216 211 176 192 193 193 192 201 201 203 205 202 198 196 198 193 213 221 211 217 224 197 186 163 199 199 203 169 167 205 202 218 213 212 218 214 206 211 211 226 217 202 193
214 208 210 197 198 197 199 201 202 207 212 213 204 206 203 198 208 213 215 210 202 203 188 178 190 191 183 213 180 196 216 224 237 217 210 200 204 204 214 226 217 201 189
216 215 212 216 204 205 201 203 204 207 212 216 216 207 206 209 207 207 205 209 199 206 205 200 197 186 196 169 201 195 205 213 241 211 219 230 203 208 234 245 234 196 189
215 213 213 218 218 216 209 203 203 210 214 216 220 221 220 214 214 206 208 206 203 211 213 213 215 216 214 200 184 199 203 165 226 206 181 246 168 225 234 221 209 196 185
209 216 220 214 221 223 211 205 202 215 219 219 220 221 222 222 214 218 217 208 206 211 217 209 213 215 212 212 204 194 200 197 190 205 130 196 164 220 228 224 197 186 185
212 214 218 221 222 227 206 206 200 218 226 228 226 225 225 224 221 211 216 214 219 219 222 221 220 222 222 214 210 205 192 182 100 146 141 177 184 205 172 249 197 174 172
213 217 219 220 227 231 204 200 188 221 232 232 230 230 228 230 222 202 213 217 220 226 214 216 220 210 199 204 176 143 170 145 184 212 195 146 202 198 190 181 200 187 179
213 213 220 221 225 231 209 195 196 221 235 238 235 237 226 232 218 200 213 214 223 219 215 218 224 226 209 201 180 181 171 186 167 198 216 163 161 156 209 198 184 190 196